Weather History for KPMV - March, 2013

Change the Weather History Date:

Sunday, March 10, 2013

  Actual Average (KOFF) Record (KOFF)
Temperature  
Mean Temperature 30 °F -  
Max Temperature 36 °F 41 °F 75 °F (2014)
Min Temperature 23 °F 23 °F 1 °F (1998)
Degree Days  
Heating Degree Days 36    
Moisture  
Dew Point 28 °F    
Average Humidity 92    
Maximum Humidity 97    
Minimum Humidity 87    
Precipitation  
Precipitation 0.04 in - - ()
Sea Level Pressure  
Sea Level Pressure 29.81 in    
Wind  
Wind Speed 18 mph (NNW)    
Max Wind Speed 28 mph    
Max Gust Speed 37 mph    
Visibility 4 miles    
Events Rain , Snow    
Averages and records for this station are not official NWS values.
T = Trace of Precipitation, MM = Missing Value Source: NWS Daily Summary

Daily Weather History Graph

Daily Weather History Graph

Search for Another Location

Airport or City:

Trip Planner

Search our weather history database for the weather conditions in past years. The results will help you decide how hot, cold, wet, or windy it might be!

Date:

Astronomy

Mar. 10, 2013 Rise Set
Actual Time 7:43 AM CDT 7:25 PM CDT
Civil Twilight 7:15 AM CDT 7:52 PM CDT
Nautical Twilight 6:43 AM CDT 8:24 PM CDT
Astronomical Twilight 6:11 AM CDT 8:56 PM CDT
Moon 6:44 AM CDT (3/10) 6:34 PM CDT (3/10)
Length of Visible Light 12h 36m
Length of Day
11h 42m
Waning Crescent, 2% of the Moon is Illuminated
Mar 10
Waning Crescent
Mar 11
New
Mar 19
First Quarter
Mar 27
Full
Apr 2
Last Quarter

Hourly Weather History & Observations

Time (CDT) Temp. Windchill Dew Point Humidity Pressure Visibility Wind Dir Wind Speed Gust Speed Precip Events Conditions
12:15 AM 36.9 °F 27.8 °F 35.6 °F 95% 29.68 in 10.0 mi North 15.0 mph 25.3 mph N/A   Overcast
12:35 AM 36.5 °F 27.8 °F 35.1 °F 95% 29.68 in 10.0 mi North 13.8 mph 23.0 mph N/A Rain Light Rain
12:55 AM 36.5 °F 27.4 °F 35.6 °F 97% 29.67 in 10.0 mi North 15.0 mph 20.7 mph N/A   Drizzle
1:15 AM 36.5 °F 27.8 °F 35.6 °F 97% 29.69 in 10.0 mi NNW 13.8 mph 18.4 mph N/A   Drizzle
1:35 AM 36.5 °F 27.4 °F 35.1 °F 95% 29.68 in 7.0 mi North 15.0 mph 23.0 mph N/A Rain Light Rain
1:55 AM 36.0 °F 26.0 °F 34.7 °F 95% 29.68 in 10.0 mi NNW 17.3 mph 23.0 mph N/A   Light Drizzle
3:15 AM 35.8 °F 25.4 °F 34.2 °F 94% 29.70 in 10.0 mi North 18.4 mph 24.2 mph N/A   Light Drizzle
3:35 AM 35.4 °F 26.4 °F 33.6 °F 93% 29.70 in 7.0 mi North 13.8 mph 24.2 mph N/A Rain Rain
3:55 AM 34.9 °F 25.7 °F 33.1 °F 93% 29.70 in 10.0 mi North 13.8 mph 26.5 mph N/A   Overcast
4:15 AM 34.5 °F 24.1 °F 32.9 °F 94% 29.69 in 7.0 mi NNW 17.3 mph 25.3 mph N/A   Overcast
4:35 AM 34.0 °F 23.8 °F 32.5 °F 94% 29.69 in 5.0 mi North 16.1 mph 25.3 mph N/A   Overcast
4:55 AM 34.0 °F 24.6 °F 32.5 °F 94% 29.72 in 7.0 mi North 13.8 mph 26.5 mph N/A   Overcast
5:15 AM 33.8 °F 22.2 °F 32.0 °F 93% 29.68 in 10.0 mi North 20.7 mph 28.8 mph N/A   Overcast
5:35 AM 33.8 °F 22.8 °F 32.0 °F 93% 29.72 in 10.0 mi North 18.4 mph 23.0 mph N/A   Overcast
5:55 AM 33.4 °F 22.3 °F 32.0 °F 94% 29.72 in 7.0 mi North 18.4 mph 25.3 mph N/A   Overcast
6:15 AM 33.3 °F 23.2 °F 32.0 °F 95% 29.76 in 7.0 mi North 15.0 mph 23.0 mph N/A   Overcast
7:15 AM 32.4 °F 20.3 °F 30.6 °F 93% 29.77 in 10.0 mi NNW 20.7 mph 26.5 mph N/A   Overcast
7:35 AM 32.0 °F 19.5 °F 30.6 °F 94% 29.75 in 2.5 mi North 21.9 mph 32.2 mph 0.03 in Snow Light Snow
7:55 AM 32.0 °F 20.5 °F 30.2 °F 93% 29.77 in 5.0 mi North 18.4 mph 27.6 mph 0.03 in Snow Light Snow
8:15 AM 32.0 °F 20.1 °F 30.0 °F 92% 29.79 in 7.0 mi North 19.6 mph 28.8 mph N/A Snow Light Snow
8:35 AM 32.0 °F 20.5 °F 29.7 °F 91% 29.78 in 5.0 mi NNW 18.4 mph 27.6 mph N/A   Overcast
8:55 AM 31.8 °F 20.6 °F 29.3 °F 90% 29.80 in 5.0 mi North 17.3 mph 27.6 mph N/A Snow Light Snow
9:15 AM 31.6 °F 19.3 °F 29.1 °F 90% 29.79 in 4.0 mi NNW 20.7 mph 34.5 mph N/A Snow Light Snow
9:35 AM 31.5 °F 19.8 °F 29.1 °F 91% 29.77 in 3.0 mi North 18.4 mph 26.5 mph N/A   Overcast
9:55 AM 31.1 °F 20.1 °F 29.1 °F 92% 29.79 in 2.5 mi NNW 16.1 mph 25.3 mph N/A   Overcast
10:15 AM 31.1 °F 20.5 °F 28.9 °F 92% 29.81 in 5.0 mi NNW 15.0 mph 24.2 mph N/A   Overcast
10:35 AM 31.1 °F 18.9 °F 28.4 °F 90% 29.82 in 4.0 mi NNW 19.6 mph 28.8 mph N/A   Overcast
10:55 AM 30.9 °F 18.7 °F 28.2 °F 90% 29.81 in 2.0 mi NNW 19.6 mph 26.5 mph N/A Snow Light Snow
11:15 AM 30.6 °F 18.2 °F 28.4 °F 92% 29.81 in 0.8 mi NNW 19.6 mph 26.5 mph N/A Snow Light Snow
11:35 AM 30.2 °F 18.5 °F 28.4 °F 93% 29.82 in 0.8 mi NNW 17.3 mph 27.6 mph N/A Snow Light Snow
11:55 AM 29.8 °F 17.7 °F 28.2 °F 94% 29.83 in 0.5 mi NNW 18.4 mph 26.5 mph 0.01 in Snow Light Snow
12:15 PM 29.3 °F 17.0 °F 27.9 °F 94% 29.84 in 0.5 mi NNW 18.4 mph 25.3 mph N/A Snow Light Snow
12:35 PM 29.3 °F 16.6 °F 28.0 °F 95% 29.84 in 0.5 mi NNW 19.6 mph 25.3 mph N/A Snow Light Snow
12:55 PM 29.3 °F 16.6 °F 27.7 °F 94% 29.83 in 0.5 mi NNW 19.6 mph 27.6 mph N/A Snow Light Snow
1:15 PM 29.3 °F 17.0 °F 27.3 °F 92% 29.83 in 0.8 mi NNW 18.4 mph 28.8 mph N/A Snow Light Snow
1:35 PM 29.3 °F 17.3 °F 27.1 °F 92% 29.82 in 0.8 mi NNW 17.3 mph 28.8 mph N/A Snow Light Snow
1:55 PM 29.3 °F 17.3 °F 27.3 °F 92% 29.82 in 0.8 mi NNW 17.3 mph 26.5 mph N/A Snow Light Snow
2:15 PM 29.3 °F 16.2 °F 27.3 °F 92% 29.81 in 0.5 mi NNW 20.7 mph 26.5 mph N/A Snow Snow
2:35 PM 29.1 °F 16.4 °F 27.1 °F 92% 29.81 in 0.2 mi NNW 19.6 mph 26.5 mph N/A Snow Snow
2:55 PM 29.1 °F 15.7 °F 27.1 °F 92% 29.80 in 0.2 mi NNW 21.9 mph 32.2 mph N/A Snow Snow
3:15 PM 28.8 °F 13.7 °F 26.6 °F 92% 29.80 in 0.5 mi NW 27.6 mph 34.5 mph N/A Snow Light Snow
3:35 PM 28.8 °F 15.2 °F 26.4 °F 91% 29.81 in 0.8 mi NNW 21.9 mph 36.8 mph N/A Snow Light Snow
3:55 PM 28.4 °F 14.1 °F 26.1 °F 91% 29.83 in 1.0 mi NNW 24.2 mph 32.2 mph N/A Snow Light Snow
4:15 PM 28.4 °F 15.8 °F 25.9 °F 90% 29.84 in 1.0 mi NW 18.4 mph 32.2 mph N/A Snow Light Snow
4:35 PM 28.0 °F 14.3 °F 25.7 °F 91% 29.84 in 1.0 mi NW 21.9 mph 35.7 mph N/A Snow Light Snow
4:55 PM 27.5 °F 13.5 °F 25.3 °F 92% 29.84 in 1.5 mi NW 21.9 mph - N/A Snow Light Snow
5:15 PM 27.5 °F 12.9 °F 24.6 °F 89% 29.85 in 1.2 mi NW 24.2 mph 31.1 mph N/A Snow Light Snow
5:35 PM 27.1 °F 12.7 °F 24.8 °F 91% 29.85 in 1.5 mi NW 23.0 mph - N/A Snow Light Snow
5:55 PM 26.6 °F 12.0 °F 23.9 °F 90% 29.86 in 1.2 mi NW 23.0 mph 32.2 mph N/A Snow Light Snow
6:15 PM 26.4 °F 11.8 °F 23.9 °F 90% 29.86 in 1.8 mi NW 23.0 mph 29.9 mph N/A Snow Light Snow
6:35 PM 26.1 °F 12.0 °F 23.9 °F 92% 29.87 in 1.0 mi NW 20.7 mph 27.6 mph N/A Snow Light Snow
6:55 PM 25.7 °F 11.9 °F 23.9 °F 93% 29.88 in 1.0 mi NW 19.6 mph 26.5 mph N/A Snow Light Snow
7:15 PM 25.7 °F 11.2 °F 23.5 °F 92% 29.88 in 1.0 mi NW 21.9 mph 26.5 mph N/A Snow Light Snow
7:35 PM 25.5 °F 10.3 °F 23.4 °F 92% 29.88 in 1.8 mi NW 24.2 mph 31.1 mph N/A Snow Light Snow
7:55 PM 25.3 °F 10.7 °F 23.2 °F 91% 29.88 in 2.0 mi NW 21.9 mph 27.6 mph N/A Snow Light Snow
8:15 PM 25.5 °F 11.3 °F 23.4 °F 92% 29.89 in 2.0 mi NW 20.7 mph - N/A Snow Light Snow
8:35 PM 25.5 °F 11.3 °F 23.4 °F 92% 29.89 in 2.0 mi NW 20.7 mph - N/A Snow Light Snow
8:55 PM 25.5 °F 10.9 °F 23.4 °F 92% 29.89 in 2.5 mi NW 21.9 mph 27.6 mph N/A Snow Light Snow
9:15 PM 25.5 °F 11.3 °F 23.5 °F 92% 29.89 in 2.0 mi NW 20.7 mph 24.2 mph N/A Snow Light Snow
9:35 PM 25.5 °F 11.6 °F 23.7 °F 93% 29.89 in 2.0 mi NW 19.6 mph 24.2 mph N/A Snow Light Snow
9:55 PM 25.7 °F 11.9 °F 23.7 °F 92% 29.90 in 2.0 mi NW 19.6 mph - N/A Snow Light Snow
10:15 PM 25.7 °F 10.8 °F 23.5 °F 92% 29.90 in 3.0 mi NW 23.0 mph 34.5 mph N/A Snow Light Snow
10:35 PM 25.9 °F 10.7 °F 23.0 °F 89% 29.91 in 7.0 mi NW 24.2 mph 31.1 mph N/A   Overcast
10:55 PM 25.7 °F 10.8 °F 22.8 °F 89% 29.91 in 10.0 mi NW 23.0 mph 31.1 mph N/A   Overcast
11:15 PM 24.8 °F 9.3 °F 22.1 °F 89% 29.91 in 5.0 mi NW 24.2 mph - N/A Snow Light Snow
11:35 PM 24.8 °F 10.3 °F 21.6 °F 87% 29.91 in 7.0 mi NW 20.7 mph 27.6 mph N/A   Overcast
12:15 AM 23.9 °F 9.1 °F 21.7 °F 91% 29.91 in 1.5 mi NW 20.7 mph - N/A Snow Light Snow
12:35 AM 23.7 °F 9.7 °F 21.2 °F 90% 29.91 in 2.0 mi NW 18.4 mph 25.3 mph N/A Snow Light Snow
12:55 AM 23.5 °F 9.9 °F 21.0 °F 90% 29.90 in 2.0 mi NW 17.3 mph - N/A Snow Light Snow